Tracking 22779 objects as of 12-Apr-2021
HD Live streaming from Space Station
objects crossing your sky now

STARLINK-1891

Track STARLINK-1891 now!
10-day predictions
STARLINK-1891 is classified as:


NORAD ID: 47174
Int'l Code: 2020-088BE
Perigee: 553.3 km
Apogee: 555.3 km
Inclination: 53.1 °
Period: 95.6 minutes
Semi major axis: 6925 km
RCS: Unknown
Launch date: November 25, 2020
Source: United States (US)
Launch site: AIR FORCE EASTERN TEST RANGE (AFETR)
aabbcc
Your satellite tracking list
Your tracking list is empty




NASA's NSSDC Master Catalog

Two Line Element Set (TLE):
1 47174U 20088BE  21101.91668981 -.00022417  00000-0 -14899-2 0  9995
2 47174  53.0557  69.6911 0001406  74.5236  38.5651 15.06421408  1752
Source of the keplerian elements: AFSPC